map of YYQ home
YYQ - Airport
Location
City:  Churchill, Manitoba, Canada
Name:Churchill Airport
ICAO:CYYQ
IATA:YYQ

Details
Type:Airport (Airfield)
Use:Public/Civil
Latitude:5844'21"N (58.739167)
Longitude:9403'59"W (-94.066388)
Elevation:96 ft (29 m)
Variation:2.07W (WMM2015 magnetic declination)
0.01 annual change
Runways:2
Longest:9195 ft (2803 m), paved

Time
Time Zone:UTC-6 (DST-5)
Local Time:

Weather
METAR:CYYQ 091300Z 33021G27KT 15SM DRSN SCT013 M20/M22 A3052 RMK SC3 SLP340
TAF:CYYQ 091139Z 0912/1012 33015G25KT P6SM -SN SCT010
TEMPO 0912/0924 4SM -SN BKN010
FM100000 30015KT P6SM SCT008
TEMPO 1000/1012 4SM -SN BKN008
BECMG 1008/1010 27015KT
RMK NXT FCST BY 091800Z

Related Locations
Nearby:
Farthest:YWKS: 11462 mi / 18447 km
Wilkins Runway (Casey), Upper Peterson Glacier, AQ

Find:

   beyond  
but within

Other Information
Maps:
NOTAMs:
Links:
Sources:

  
flag of Canada
flag of Manitoba
  

Airport Diagram

Airport diagram for YYQ

Airport diagram PDF

Sectional Chart

Flight Planning
at skyvector.com

Satellite Image

Google Maps Satellite view

 

Copyright © 2004-2016 Karl L. Swartz. All rights reserved.
The Great Circle Mapper name and logo are trademarks of the Great Circle Mapper.
All other trademarks mentioned herein belong to their respective owners.
Please see credits for attibutions and further copyright information.

  Follow gcmap on Facebook Follow gcmap on Twitter Follow gcmap on Google+ GCmap on LinkedIn

hCard Microformat

Geo Microformat